Flag for Myanmar Weather past 2 weeks in Yangon, Myanmar

Now
84 °F

Scattered clouds.


Feels Like: 92 °F
Forecast: 76 / 87 °F
Wind: 5 mph from East

Location: Rangoon Airport

Current Time: Oct 20, 2014 at 11:09:05 AM

Latest Report: Oct 20, 2014 at 9:30 AM


Visibility: 4 mi

Pressure: 29.92 "Hg

Humidity: 74%

Dew point: 75 °F

Location of YangonLocation

Historic Weather in Yangon — Graph

°F

Yangon temperature yesterday

Maximum temperature yesterday: 90 °F (at 11:00 AM)
Minimum temperature yesterday: 77 °F (at 4:00 AM)
Average temperature yesterday: 82 °F

Past Weeks' High & Low Weather Summary

 TemperatureHumidityPressure
High102 °F (Oct 14, 7:30 PM)100% (Oct 6, 1:00 AM)29.98 "Hg (Oct 6, 1:00 AM)
Low75 °F (Oct 6, 5:00 AM)42% (Oct 14, 7:30 PM)29.71 "Hg (Oct 5, 3:30 PM)
Average83 °F81%29.86 "Hg
* Reported Oct 5 9:30 AM — Oct 20 9:30 AM, Yangon, Weather by CustomWeather, © 2014

Note: Actual official high and low records may vary slightly from our data, if they occured in-between our weather recording intervals... More about our weather records

Advertising

Yangon weather history for previous 24 hours

 ConditionsComfort  
Time TempWeatherWind HumidityBarometerVisibility
9:30 AM
Oct 20
84 °FScattered clouds.5 mph74%29.92 "Hg4 mi
9:00 AM84 °FScattered clouds.2 mph79%29.92 "Hg4 mi
8:30 AM81 °FPassing clouds.2 mph84%29.92 "Hg4 mi
8:00 AM79 °FPassing clouds.3 mph94%29.89 "Hg4 mi
7:30 AM77 °FPassing clouds.3 mph89%29.89 "Hg3 mi
6:30 AM77 °FFog.2 mph100%29.86 "Hg2 mi
6:00 AM77 °FFog.2 mph100%29.83 "Hg2 mi
5:30 AM77 °FFog.2 mph100%29.83 "Hg2 mi
5:00 AM77 °FFog.2 mph100%29.83 "Hg2 mi
4:30 AM77 °FFog.2 mph100%29.83 "Hg3 mi
12:30 AM79 °FPassing clouds.2 mph94%29.86 "Hg4 mi
12:00 AM79 °FPassing clouds.2 mph94%29.86 "Hg4 mi
11:30 PM
Oct 19
81 °FPassing clouds.2 mph94%29.86 "Hg4 mi
11:00 PM81 °FPassing clouds.3 mph94%29.89 "Hg4 mi
10:30 PM81 °FPassing clouds.2 mph94%29.89 "Hg4 mi
10:00 PM81 °FPassing clouds.2 mph94%29.89 "Hg4 mi
9:30 PM81 °FPassing clouds.2 mph94%29.86 "Hg4 mi
9:00 PM81 °FPassing clouds.2 mph94%29.86 "Hg4 mi
8:30 PM81 °FPassing clouds.2 mph94%29.86 "Hg4 mi
8:00 PM81 °FPassing clouds.5 mph94%29.86 "Hg4 mi
7:30 PM81 °FPassing clouds.2 mph94%29.83 "Hg4 mi
7:00 PM81 °FPassing clouds.2 mph94%29.83 "Hg4 mi
6:30 PM81 °FPassing clouds.2 mph94%29.83 "Hg4 mi
6:00 PM81 °FPartly sunny.5 mph94%29.80 "Hg4 mi
5:30 PM82 °FPartly sunny.3 mph84%29.80 "Hg4 mi
5:00 PM82 °FPartly sunny.3 mph84%29.80 "Hg4 mi
4:30 PM82 °FRain. Mostly cloudy.12 mph84%29.80 "Hg1 mi
4:00 PM86 °FLight rain. Partly sunny.12 mph75%29.80 "Hg3 mi
3:30 PM90 °FPartly sunny.2 mph67%29.77 "Hg4 mi
3:00 PM90 °FPartly sunny.5 mph67%29.77 "Hg4 mi
2:30 PM88 °FPartly sunny.5 mph79%29.80 "Hg4 mi
2:00 PM88 °FPartly sunny.5 mph79%29.80 "Hg4 mi
1:30 PM90 °FScattered clouds.7 mph75%29.80 "Hg5 mi
1:00 PM90 °FScattered clouds.8 mph75%29.83 "Hg5 mi
12:30 PM90 °FScattered clouds.6 mph75%29.83 "Hg5 mi
12:00 PM90 °FScattered clouds.6 mph63%29.86 "Hg5 mi
11:00 AM90 °FScattered clouds.6 mph75%29.86 "Hg5 mi
Weather by CustomWeather, © 2014

See weather overviewHow to use our weather pages